Regional Weather Roundup
Issued by NWS

Home | Current Version | Previous Version | Graphics & Text | Print | Product List | Glossary On
Versions: 1 2 3 4 5 6 7 8 9 10 11 12 13 14 15 16 17 18 19 20 21 22 23 24 25 26 27 28 29 30 31 32 33 34 35 36 37 38 39 40 41 42 43 44 45 46 47 48 49 50
000
ASUS43 KMPX 291010
RWRMN
WEATHER ROUNDUP FOR MINNESOTA
NATIONAL WEATHER SERVICE TWIN CITIES/CHANHASSEN MN
500 AM CDT SUN MAY 29 2016


NOTE: "FAIR" INDICATES FEW OR NO CLOUDS BELOW 12,000 FEET WITH NO
SIGNIFICANT WEATHER AND/OR OBSTRUCTIONS TO VISIBILITY. N/A MEANS
CURRENT SKY AND/OR WEATHER CONDITIONS ARE NOT AVAILABLE.

MNZ060>063-068>070-291100-
   Twin Cities Metro

CITY           SKY/WX    TMP DP  RH WIND       PRES   REMARKS
TWIN CITIES    CLOUDY    62  59  90 W6        29.85R
ST PAUL        CLOUDY    62  60  93 W6        29.85R
CRYSTAL        CLOUDY    62  57  83 W7        29.83R
BLAINE         CLOUDY    63  63 100 W5        29.84S
EDEN PRAIRIE   CLOUDY    62  58  86 W7        29.85R
SOUTH ST PAUL  CLOUDY    62  60  94 W5        29.85R
LAKE ELMO      CLOUDY    59  59 100 W6        29.86R FOG
$$
MNZ001>005-007-008-013>017-022>024-027-028-291100-
   Northwest Minnesota

CITY           SKY/WX    TMP DP  RH WIND       PRES   REMARKS
BEMIDJI        DRIZZLE   55  54  98 W10       29.85R
HALLOCK        CLOUDY    57  55  94 NW6       29.88R
ROSEAU         LGT RAIN  55  50  82 NW5       29.85S
WARROAD        RAIN      54  50  87 NW5       29.85S
THIEF RVR FALL CLOUDY    55  54  94 NW6       29.88S
CROOKSTON      CLOUDY    57  57 100 W3        29.88S
FOSSTON        CLOUDY    54  54 100 NW3       29.87S
DETROIT LAKES  CLOUDY    57  55  94 NW7       29.89R
MOORHEAD       CLOUDY    59  57  94 NW5       29.90R
PARK RAPIDS    LGT RAIN  58  56  93 NW9       29.84S
MAHNOMEN       CLOUDY    56  56  99 NW6       29.87S
$$
MNZ006-009>011-018-025>026-291100-
   North Central Minnesota

CITY           SKY/WX    TMP DP  RH WIND       PRES   REMARKS
BAUDETTE       CLOUDY    54  53  97 NW8       29.82S
FLAG ISLAND    LGT RAIN  54  52  94 NW10      29.82S
INTL FALLS     FOG       56  55  97 NW7       29.78S VSB 1/4
WASKISH        DRIZZLE   55  54  94 W8        29.82S
BIG FORK       DRIZZLE   55  55 100 CALM      29.80R
LONGVILLE      CLOUDY    57  57 100 W5        29.82S
GRAND RAPIDS   LGT RAIN  59  58  96 SW6       29.81S FOG
CRANE LAKE     DRIZZLE   55  55 100 CALM      29.77F
ORR            DRIZZLE   57  55  94 CALM      29.75S
COOK           RAIN      57  57 100 CALM      29.78S
WALKER         DRIZZLE   56  55  97 W8        29.83R
$$
MNZ012-019>021-037-291100-
   Northeast Minnesota

CITY           SKY/WX    TMP DP  RH WIND       PRES   REMARKS
DULUTH         CLOUDY    57  56  96 W7        29.78F FOG
ELY            CLOUDY    57  57 100 W5        29.77S
HIBBING        LGT RAIN  57  57 100 SW3       29.78S FOG
EVELETH        CLOUDY    57  55  94 CALM      29.79S FOG
DULUTH HARBOR  CLOUDY    54  52  94 SW5       29.79S
TWO HARBORS    DRZL/FOG  55  52  88 CALM      29.76S VSB 1/2
SILVER BAY     CLOUDY    55  55 100 CALM      29.75F FOG
GRAND MARAIS     N/A     44  44 100 CALM      29.76F
G MARAIS ARPRT FOG       55  54  94 CALM      29.77F VSB<1/4
$$
MNZ029>031-032-039>041-046>048-054>057-064-291100-
   West Central Minnesota

CITY           SKY/WX    TMP DP  RH WIND       PRES   REMARKS
FERGUS FALLS   CLOUDY    57  57 100 NW8       29.86S FOG
WHEATON        CLEAR     57  57 100 CALM      29.91S
MORRIS         CLOUDY    55  54  94 W6        29.89R FOG
ALEXANDRIA     CLOUDY    59  56  89 NW13      29.89R
ELBOW LAKE     CLOUDY    56  56 100 NW7       29.89S FOG
WADENA         CLOUDY    57  57 100 W8        29.86R
GLENWOOD       CLOUDY    59  57  94 W12       29.89S FOG
APPLETON       CLOUDY    57  54  88 W5        29.89F FOG
ORTONVILLE     CLOUDY    61  55  82 W6        29.90S
MADISON        MOCLDY    55  54  94 W6        29.91S
WILLMAR        FAIR      61  57  88 W7        29.90S FOG
$$
MNZ033>034-036-042>043-049>051-058-059-291100-
   Central Minnesota

CITY           SKY/WX    TMP DP  RH WIND       PRES   REMARKS
ST CLOUD       RAIN      60  59  96 W8        29.85R FOG
SAUK CENTRE    CLOUDY    59  57  96 W9        29.87R
PAYNESVILLE    DRIZZLE   59  60 100 W10       29.89R
AITKIN         CLOUDY    61  55  82 CALM      29.80S
PINE RIVER     CLOUDY    57  57 100 W5        29.86R
BRAINERD       CLOUDY    59  58  96 W8        29.83R
STAPLES        DRIZZLE   57  57 100 W8        29.85R
LONG PRAIRIE   DRIZZLE   59  55  88 W7        29.87R
LITTLE FALLS   CLOUDY    59  55  88 W8        29.85R
LITCHFIELD     CLOUDY    63  61  94 W8G17     29.89R
BUFFALO        LGT RAIN  61  57  88 W8        29.87R
MAPLE LAKE     LGT RAIN  61  60  96 W6        29.87R
HUTCHINSON     CLOUDY    61  60  95 W9        29.90R
$$
MNZ037-044-045-052-053-291100-
   East Central Minnesota

CITY           SKY/WX    TMP DP  RH WIND       PRES   REMARKS
PRINCETON        N/A     61  57  88 W3        29.84S
MORA           MOCLDY    55  55 100 W3        29.84S
CAMBRIDGE      CLOUDY    63  54  72 CALM      29.82R
RUSH CITY      CLOUDY    60  58  94 W3        29.83S
MOOSE LAKE     LGT RAIN  55  55 100 SW3       29.79S
HINCKLEY       CLOUDY    59  59 100 W5        29.82R
CLOQUET        FOG       55  54  94 CALM      29.79S VSB 1
MCGREGOR       CLOUDY    59  57  94 CALM      29.81S
$$
MNZ071>073-080-081-089-090-097-098-291100-
   Southwest Minnesota

CITY           SKY/WX    TMP DP  RH WIND       PRES   REMARKS
MONTEVIDEO     CLEAR     57  57 100 CALM      29.91F
GRANITE FALLS  CLEAR     58  56  94 W8        29.92S
CANBY          CLOUDY    62  58  87 W7        29.92S
MARSHALL       CLEAR     57  55  93 W9        29.93R
REDWOOD FALLS  PTCLDY    59  56  89 W8        29.90S
OLIVIA         CLOUDY    59  55  88 W7        29.89S
PIPESTONE      CLOUDY    57  55  94 W3        29.96R FOG
WINDOM         CLOUDY    57  55  94 W7        29.94R FOG
WORTHINGTON    FOG       57  55  94 W8        29.97R VSB 3/4
JACKSON        MOCLDY    59  55  88 W8        29.95S FOG
TRACY          CLEAR     59  56  92 W3        29.94S
SLAYTON        CLOUDY    57  57  98 W7        29.96R
$$
MNZ065>067-074>077-082>085-091>093-291100-
   South Central Minnesota

CITY           SKY/WX    TMP DP  RH WIND       PRES   REMARKS
MANKATO        CLOUDY    61  57  88 W10       29.89S
NEW ULM        CLOUDY    61  59  94 W13       29.91R
ST JAMES       MOCLDY    55  54  94 W10       29.93R
FAIRMONT       CLEAR     59  54  82 W10       29.93R
GLENCOE        MOCLDY    62  61  96 W10       29.88R
FARIBAULT      CLOUDY    61  61 100 SW8       29.88R
OWATONNA       MOCLDY    61  57  88 W9        29.89S FOG
WASECA         MOCLDY    59  57  94 W7        29.91S
ALBERT LEA     PTCLDY    59  59 100 W5        29.91R FOG
$$
MNZ078>079-086>088-094>096-291100-
   Southeast Minnesota

CITY           SKY/WX    TMP DP  RH WIND       PRES   REMARKS
ROCHESTER      MOCLDY    60  60 100 W14       29.89R
RED WING       MOCLDY    61  61 100 W3        29.84R FOG
STANTON        CLOUDY    61  59  92 W6        29.86R
DODGE CENTER   CLOUDY    61  59  94 W10       29.89R
WINONA         CLOUDY    63  61  94 NW5       29.85R
AUSTIN         CLOUDY    61  57  88 W9        29.90R
PRESTON        PTCLDY    60  58  92 W9        29.89R
$$
ABBREVIATIONS USED IN REMARKS
   TC - TEMPERATURES IN CELSIUS
  WCI - WIND CHILL INDEX
   HX - HEAT INDEX
  VSB - VISIBILITY
$$



USA.gov is the U.S. government's official web portal to all federal, state and local government web resources and services.